| time (UTC) | temp F | wind direction | speed MPH | gust MPH | rain 1hr in | rain 24hr in | rain mn in | humidity % | barometer mb |
| 20260509034404 | 54 | 284 | 2.0 | 6.0 | 0.00 | 0.00 | 0.00 | 1010.2 | |
| 20260509033903 | 54 | 266 | 1.0 | 6.0 | 0.00 | 0.00 | 0.00 | 1009.9 | |
| 20260509033403 | 54 | 280 | 3.0 | 6.0 | 0.00 | 0.00 | 0.00 | 1010.2 | |
| 20260509032903 | 55 | 294 | 3.0 | 5.0 | 0.00 | 0.00 | 0.00 | 1010.2 | |
| 20260509032403 | 55 | 294 | 2.0 | 4.0 | 0.00 | 0.00 | 0.00 | 1010.9 | |
| 20260509031903 | 55 | 313 | 2.0 | 6.0 | 0.00 | 0.00 | 0.00 | 1010.5 | |
| 20260509031403 | 55 | 296 | 3.0 | 6.0 | 0.00 | 0.00 | 0.00 | 1010.2 | |
| 20260509030903 | 55 | 314 | 2.0 | 7.0 | 0.00 | 0.00 | 0.00 | 1010.5 | |
| 20260509030424 | 55 | 301 | 3.0 | 7.0 | 0.00 | 0.00 | 0.00 | 1010.5 | |
| 20260509025903 | 55 | 283 | 3.0 | 6.0 | 0.00 | 0.00 | 0.00 | 1010.5 | |
| 20260509025403 | 55 | 315 | 1.0 | 4.0 | 0.00 | 0.00 | 0.00 | 1010.5 | |
| 20260509024903 | 55 | 291 | 2.0 | 6.0 | 0.00 | 0.00 | 0.00 | 1010.5 | |
| 20260509024403 | 55 | 296 | 2.0 | 6.0 | 0.00 | 0.00 | 0.00 | 1010.9 | |
| 20260509023903 | 55 | 313 | 0.0 | 4.0 | 0.00 | 0.00 | 0.00 | 1010.9 | |
| 20260509023403 | 55 | 332 | 0.0 | 6.0 | 0.00 | 0.00 | 0.00 | 1010.9 | |
| 20260509022903 | 55 | 319 | 0.0 | 6.0 | 0.00 | 0.00 | 0.00 | 1010.9 | |
| 20260509022404 | 55 | 299 | 0.0 | 6.0 | 0.00 | 0.00 | 0.00 | 1011.2 | |
| 20260509021903 | 56 | 353 | 0.0 | 9.0 | 0.00 | 0.00 | 0.00 | 1010.9 | |
| 20260509020405 | 56 | 314 | 0.0 | 4.0 | 0.00 | 0.00 | 0.00 | 1010.9 | |
| 20260509015925 | 56 | 306 | 1.0 | 3.0 | 0.00 | 0.00 | 0.00 | 1010.5 | |
| 20260509015402 | 56 | 296 | 0.0 | 4.0 | 0.00 | 0.00 | 0.00 | 1010.5 | |
| 20260509014903 | 56 | 286 | 0.0 | 4.0 | 0.00 | 0.00 | 0.00 | 1010.2 | |
| 20260509014402 | 56 | 315 | 0.0 | 6.0 | 0.00 | 0.00 | 0.00 | 1010.2 | |
| 20260509013903 | 56 | 276 | 0.0 | 6.0 | 0.00 | 0.00 | 0.00 | 1009.9 | |
| 20260509013424 | 56 | 297 | 0.0 | 2.0 | 0.00 | 0.00 | 0.00 | 1010.2 | |
| 20260509012924 | 56 | 333 | 0.0 | 3.0 | 0.00 | 0.00 | 0.00 | 1010.2 | |
| 20260509012403 | 57 | 324 | 1.0 | 4.0 | 0.00 | 0.00 | 0.00 | 1010.5 | |
| 20260509011924 | 57 | 292 | 0.0 | 9.0 | 0.00 | 0.00 | 0.00 | 1010.9 | |
| 20260509011403 | 57 | 312 | 3.0 | 9.0 | 0.00 | 0.00 | 0.00 | 1010.2 | |
| 20260509010903 | 58 | 311 | 3.0 | 8.0 | 0.00 | 0.00 | 0.00 | 1010.9 | |
| 20260509010424 | 58 | 297 | 3.0 | 7.0 | 0.00 | 0.00 | 0.00 | 1010.9 | |
| 20260509005903 | 58 | 288 | 4.0 | 7.0 | 0.00 | 0.00 | 0.00 | 1010.5 | |
| 20260509005402 | 59 | 308 | 4.0 | 7.0 | 0.00 | 0.00 | 0.00 | 1010.5 | |
| 20260509004924 | 59 | 312 | 4.0 | 7.0 | 0.00 | 0.00 | 0.00 | 1010.5 | |
| 20260509004403 | 58 | 302 | 1.0 | 2.0 | 0.00 | 0.00 | 0.00 | 1010.2 | |
| 20260509003903 | 58 | 292 | 0.0 | 1.0 | 0.00 | 0.00 | 0.00 | 1010.2 | |
| 20260509003403 | 58 | 248 | 0.0 | 6.0 | 0.00 | 0.00 | 0.00 | 1010.2 | |
| 20260509002903 | 59 | 297 | 0.0 | 6.0 | 0.00 | 0.00 | 0.00 | 1009.9 | |
| 20260509002402 | 59 | 302 | 0.0 | 4.0 | 0.00 | 0.00 | 0.00 | 1009.9 | |
| 20260509001903 | 59 | 270 | 0.0 | 1.0 | 0.00 | 0.00 | 0.00 | 1010.2 | |
| 20260509001403 | 59 | 23 | 0.0 | 0.0 | 0.00 | 0.00 | 0.00 | 1009.9 | |
| 20260509000904 | 59 | 23 | 0.0 | 0.0 | 0.00 | 0.00 | 0.00 | 1009.9 | |
| 20260509000403 | 59 | 90 | 0.0 | 0.0 | 0.00 | 0.00 | 0.00 | 1009.9 | |
| 20260508235925 | 59 | 293 | 0.0 | 2.0 | 0.00 | 0.00 | 0.00 | 1010.2 | |
| 20260508235404 | 59 | 180 | 0.0 | 2.0 | 0.00 | 0.00 | 0.00 | 1010.2 | |
| 20260508234903 | 60 | 187 | 0.0 | 2.0 | 0.00 | 0.00 | 0.00 | 1009.9 | |
| 20260508234403 | 60 | 238 | 0.0 | 3.0 | 0.00 | 0.00 | 0.00 | 1009.9 | |
| 20260508233903 | 60 | 288 | 0.0 | 6.0 | 0.00 | 0.00 | 0.00 | 1009.9 | |
| 20260508233424 | 60 | 202 | 0.0 | 6.0 | 0.00 | 0.00 | 0.00 | 1010.2 | |
| 20260508232903 | 60 | 337 | 0.0 | 3.0 | 0.00 | 0.00 | 0.00 | 1009.5 | |
| 20260508231403 | 60 | 247 | 1.0 | 6.0 | 0.00 | 0.00 | 0.00 | 1009.9 | |
| 20260508230903 | 61 | 269 | 0.0 | 1.0 | 0.00 | 0.00 | 0.00 | 1009.5 | |
| 20260508230403 | 61 | 270 | 0.0 | 6.0 | 0.00 | 0.00 | 0.00 | 1009.9 | |
| 20260508225903 | 61 | 270 | 0.0 | 6.0 | 0.00 | 0.00 | 0.00 | 1010.2 | |
| 20260508225445 | 61 | 23 | 0.0 | 5.0 | 0.00 | 0.00 | 0.00 | 1009.9 | |
| 20260508224903 | 62 | 23 | 0.0 | 5.0 | 0.00 | 0.00 | 0.00 | 1009.2 | |
| 20260508224404 | 62 | 288 | 0.0 | 7.0 | 0.00 | 0.00 | 0.00 | 1009.5 | |
| 20260508223924 | 62 | 203 | 0.0 | 7.0 | 0.00 | 0.00 | 0.00 | 1010.2 | |
| 20260508223424 | 62 | 234 | 0.0 | 6.0 | 0.00 | 0.00 | 0.00 | 1009.9 | |
| 20260508222903 | 63 | 292 | 0.0 | 6.0 | 0.00 | 0.00 | 0.00 | 1009.2 | |
| 20260508222403 | 63 | 260 | 0.0 | 6.0 | 0.00 | 0.00 | 0.00 | 1009.9 | |
| 20260508221903 | 63 | 267 | 0.0 | 3.0 | 0.00 | 0.00 | 0.00 | 1009.9 | |
| 20260508221402 | 63 | 237 | 0.0 | 3.0 | 0.00 | 0.00 | 0.00 | 1010.2 | |
| 20260508220903 | 63 | 247 | 0.0 | 4.0 | 0.00 | 0.00 | 0.00 | 1009.9 | |
| 20260508220403 | 63 | 266 | 0.0 | 4.0 | 0.00 | 0.00 | 0.00 | 1009.9 | |
| 20260508215924 | 64 | 274 | 2.0 | 5.0 | 0.00 | 0.00 | 0.00 | 1009.9 | |
| 20260508215403 | 64 | 283 | 3.0 | 5.0 | 0.00 | 0.00 | 0.00 | 1009.9 | |
| 20260508214902 | 64 | 229 | 0.0 | 4.0 | 0.00 | 0.00 | 0.00 | 1008.8 | |
| 20260508214403 | 64 | 265 | 0.0 | 3.0 | 0.00 | 0.00 | 0.00 | 1009.2 | |
| 20260508213903 | 64 | 263 | 0.0 | 3.0 | 0.00 | 0.00 | 0.00 | 1009.5 | |
| 20260508213424 | 64 | 247 | 0.0 | 6.0 | 0.00 | 0.00 | 0.00 | 1009.5 | |
| 20260508212903 | 64 | 206 | 0.0 | 6.0 | 0.00 | 0.00 | 0.00 | 1009.9 | |
| 20260508212404 | 64 | 268 | 1.0 | 5.0 | 0.00 | 0.00 | 0.00 | 1009.5 | |
| 20260508211924 | 65 | 184 | 0.0 | 5.0 | 0.00 | 0.00 | 0.00 | 1009.5 | |
| 20260508211403 | 65 | 188 | 1.0 | 5.0 | 0.00 | 0.00 | 0.00 | 1009.9 | |
| 20260508210902 | 64 | 218 | 1.0 | 3.0 | 0.00 | 0.00 | 0.00 | 1009.9 | |
| 20260508210403 | 65 | 269 | 2.0 | 3.0 | 0.00 | 0.00 | 0.00 | 1010.2 | |
| 20260508205403 | 65 | 285 | 2.0 | 9.0 | 0.00 | 0.00 | 0.00 | 1009.9 | |
| 20260508204903 | 65 | 255 | 2.0 | 6.0 | 0.00 | 0.00 | 0.00 | 1009.5 | |
| 20260508204402 | 65 | 254 | 2.0 | 6.0 | 0.00 | 0.00 | 0.00 | 1010.2 | |
| 20260508203903 | 65 | 247 | 3.0 | 7.0 | 0.00 | 0.00 | 0.00 | 1010.2 | |
| 20260508203424 | 65 | 265 | 1.0 | 8.0 | 0.00 | 0.00 | 0.00 | 1010.5 | |
| 20260508202903 | 65 | 250 | 0.0 | 10.0 | 0.00 | 0.00 | 0.00 | 1009.9 | |
| 20260508202403 | 65 | 259 | 4.0 | 10.0 | 0.00 | 0.00 | 0.00 | 1010.2 | |
| 20260508201904 | 65 | 260 | 3.0 | 10.0 | 0.00 | 0.00 | 0.00 | 1010.5 | |
| 20260508201403 | 65 | 261 | 2.0 | 10.0 | 0.00 | 0.00 | 0.00 | 1010.5 | |
| 20260508200903 | 66 | 262 | 1.0 | 4.0 | 0.00 | 0.00 | 0.00 | 1010.5 | |
| 20260508200403 | 65 | 196 | 0.0 | 7.0 | 0.00 | 0.00 | 0.00 | 1009.5 | |
| 20260508195925 | 65 | 255 | 3.0 | 7.0 | 0.00 | 0.00 | 0.00 | 1010.2 | |
| 20260508195403 | 65 | 199 | 1.0 | 7.0 | 0.00 | 0.00 | 0.00 | 1009.9 | |
| 20260508194903 | 65 | 212 | 3.0 | 8.0 | 0.00 | 0.00 | 0.00 | 1010.2 | |
| 20260508194403 | 65 | 203 | 2.0 | 9.0 | 0.00 | 0.00 | 0.00 | 1010.5 | |
| 20260508193903 | 66 | 208 | 3.0 | 9.0 | 0.00 | 0.00 | 0.00 | 1010.9 | |
| 20260508193424 | 66 | 260 | 3.0 | 6.0 | 0.00 | 0.00 | 0.00 | 1010.9 | |
| 20260508192902 | 66 | 232 | 3.0 | 9.0 | 0.00 | 0.00 | 0.00 | 1010.9 | |
| 20260508192403 | 66 | 208 | 4.0 | 11.0 | 0.00 | 0.00 | 0.00 | 1010.9 | |
| 20260508191903 | 67 | 266 | 5.0 | 12.0 | 0.00 | 0.00 | 0.00 | 1010.5 | |
| 20260508191403 | 68 | 280 | 5.0 | 12.0 | 0.00 | 0.00 | 0.00 | 1010.9 | |
| 20260508190903 | 68 | 249 | 3.0 | 15.0 | 0.00 | 0.00 | 0.00 | 1010.5 | |
| 20260508190403 | 68 | 257 | 5.0 | 15.0 | 0.00 | 0.00 | 0.00 | 1010.5 | |
| 20260508185924 | 69 | 263 | 3.0 | 8.0 | 0.00 | 0.00 | 0.00 | 1010.9 | |
| 20260508185403 | 68 | 242 | 2.0 | 7.0 | 0.00 | 0.00 | 0.00 | 1011.5 | |
| 20260508184903 | 67 | 237 | 3.0 | 10.0 | 0.00 | 0.00 | 0.00 | 1010.9 | |
| 20260508184402 | 67 | 254 | 4.0 | 13.0 | 0.00 | 0.00 | 0.00 | 1011.2 | |
| 20260508183903 | 67 | 234 | 5.0 | 14.0 | 0.00 | 0.00 | 0.00 | 1011.5 | |
| 20260508183403 | 67 | 246 | 4.0 | 14.0 | 0.00 | 0.00 | 0.00 | 1011.5 | |
| 20260508182926 | 67 | 266 | 5.0 | 13.0 | 0.00 | 0.00 | 0.00 | 1011.9 | |
| 20260508182424 | 67 | 225 | 3.0 | 17.0 | 0.00 | 0.00 | 0.00 | 1011.5 | |
| 20260508181903 | 66 | 275 | 6.0 | 17.0 | 0.00 | 0.00 | 0.00 | 1010.9 | |
| 20260508181402 | 66 | 248 | 3.0 | 20.0 | 0.00 | 0.00 | 0.00 | 1011.9 | |
| 20260508180924 | 66 | 279 | 8.0 | 20.0 | 0.00 | 0.00 | 0.00 | 1011.9 | |
| 20260508180403 | 66 | 287 | 3.0 | 9.0 | 0.00 | 0.00 | 0.00 | 1012.2 | |
| 20260508175902 | 65 | 223 | 3.0 | 9.0 | 0.00 | 0.00 | 0.00 | 1012.2 | |
| 20260508175445 | 66 | 225 | 2.0 | 9.0 | 0.00 | 0.00 | 0.00 | 1011.5 | |
| 20260508174903 | 65 | 224 | 3.0 | 10.0 | 0.00 | 0.00 | 0.00 | 1011.9 | |
| 20260508174403 | 66 | 213 | 4.0 | 12.0 | 0.00 | 0.00 | 0.00 | 1012.2 | |
| 20260508173903 | 65 | 244 | 4.0 | 12.0 | 0.00 | 0.00 | 0.00 | 1011.9 | |
| 20260508173403 | 65 | 255 | 5.0 | 12.0 | 0.00 | 0.00 | 0.00 | 1011.9 | |
| 20260508172903 | 65 | 247 | 5.0 | 17.0 | 0.00 | 0.00 | 0.00 | 1012.2 | |
| 20260508172404 | 66 | 252 | 5.0 | 17.0 | 0.00 | 0.00 | 0.00 | 1012.6 | |
| 20260508171903 | 66 | 213 | 3.0 | 13.0 | 0.00 | 0.00 | 0.00 | 1012.6 | |
| 20260508171403 | 66 | 264 | 3.0 | 13.0 | 0.00 | 0.00 | 0.00 | 1012.9 | |
| 20260508170924 | 66 | 201 | 5.0 | 20.0 | 0.00 | 0.00 | 0.00 | 1012.6 | |
| 20260508170403 | 66 | 258 | 6.0 | 20.0 | 0.00 | 0.00 | 0.00 | 1012.9 | |
| 20260508165926 | 66 | 268 | 7.0 | 18.0 | 0.00 | 0.00 | 0.00 | 1012.6 | |
| 20260508165403 | 66 | 254 | 5.0 | 12.0 | 0.00 | 0.00 | 0.00 | 1012.6 | |
| 20260508164904 | 66 | 246 | 4.0 | 12.0 | 0.00 | 0.00 | 0.00 | 1013.2 | |
| 20260508164445 | 65 | 206 | 4.0 | 14.0 | 0.00 | 0.00 | 0.00 | 1012.6 | |
| 20260508163902 | 65 | 200 | 4.0 | 14.0 | 0.00 | 0.00 | 0.00 | 1013.2 | |
| 20260508163403 | 65 | 210 | 4.0 | 17.0 | 0.00 | 0.00 | 0.00 | 1012.9 | |
| 20260508162945 | 65 | 271 | 5.0 | 17.0 | 0.00 | 0.00 | 0.00 | 1013.2 | |
| 20260508162424 | 64 | 264 | 6.0 | 16.0 | 0.00 | 0.00 | 0.00 | 1012.9 | |
| 20260508161903 | 64 | 270 | 6.0 | 16.0 | 0.00 | 0.00 | 0.00 | 1013.2 | |
| 20260508161402 | 64 | 276 | 7.0 | 14.0 | 0.00 | 0.00 | 0.00 | 1012.9 | |
| 20260508160924 | 65 | 208 | 7.0 | 12.0 | 0.00 | 0.00 | 0.00 | 1012.9 | |
| 20260508155403 | 63 | 246 | 4.0 | 10.0 | 0.00 | 0.00 | 0.00 | 1012.9 | |
| 20260508154903 | 62 | 187 | 2.0 | 13.0 | 0.00 | 0.00 | 0.00 | 1013.2 | |
| 20260508154403 | 62 | 216 | 4.0 | 13.0 | 0.00 | 0.00 | 0.00 | 1013.2 | |
| 20260508153903 | 62 | 173 | 3.0 | 5.0 | 0.00 | 0.00 | 0.00 | 1013.6 | |
| 20260508153402 | 61 | 161 | 1.0 | 6.0 | 0.00 | 0.00 | 0.00 | 1013.2 | |
| 20260508152903 | 60 | 179 | 4.0 | 6.0 | 0.00 | 0.00 | 0.00 | 1012.9 | |
| 20260508152402 | 60 | 198 | 2.0 | 5.0 | 0.00 | 0.00 | 0.00 | 1013.2 | |
| 20260508151903 | 60 | 179 | 2.0 | 6.0 | 0.00 | 0.00 | 0.00 | 1013.6 | |
| 20260508151403 | 60 | 197 | 2.0 | 6.0 | 0.00 | 0.00 | 0.00 | 1013.2 | |
| 20260508150903 | 60 | 197 | 2.0 | 7.0 | 0.00 | 0.00 | 0.00 | 1013.9 | |
| 20260508150402 | 59 | 199 | 4.0 | 7.0 | 0.00 | 0.00 | 0.00 | 1013.6 | |
| 20260508145903 | 60 | 184 | 1.0 | 4.0 | 0.00 | 0.00 | 0.00 | 1013.2 | |
| 20260508145446 | 59 | 207 | 2.0 | 8.0 | 0.00 | 0.00 | 0.00 | 1013.2 | |
| 20260508144903 | 59 | 238 | 3.0 | 8.0 | 0.00 | 0.00 | 0.00 | 1013.6 | |
| 20260508144425 | 59 | 202 | 4.0 | 6.0 | 0.00 | 0.00 | 0.00 | 1013.9 | |
| 20260508143902 | 59 | 193 | 3.0 | 12.0 | 0.00 | 0.00 | 0.00 | 1013.2 | |
| 20260508143403 | 60 | 210 | 1.0 | 12.0 | 0.00 | 0.00 | 0.00 | 1013.9 | |
| 20260508142904 | 59 | 249 | 4.0 | 10.0 | 0.00 | 0.00 | 0.00 | 1013.6 | |
| 20260508142403 | 59 | 242 | 3.0 | 12.0 | 0.00 | 0.00 | 0.00 | 1013.6 | |
| 20260508141924 | 59 | 239 | 4.0 | 12.0 | 0.00 | 0.00 | 0.00 | 1013.9 | |
| 20260508141403 | 58 | 222 | 2.0 | 9.0 | 0.00 | 0.00 | 0.00 | 1013.6 | |
| 20260508140924 | 58 | 253 | 4.0 | 14.0 | 0.00 | 0.00 | 0.00 | 1013.6 | |
| 20260508140403 | 58 | 266 | 4.0 | 14.0 | 0.00 | 0.00 | 0.00 | 1013.6 | |
| 20260508135925 | 58 | 216 | 4.0 | 15.0 | 0.00 | 0.00 | 0.00 | 1013.2 | |
| 20260508135403 | 57 | 264 | 5.0 | 15.0 | 0.00 | 0.00 | 0.00 | 1013.6 | |
| 20260508134903 | 57 | 248 | 3.0 | 15.0 | 0.00 | 0.00 | 0.00 | 1013.2 | |
| 20260508134424 | 56 | 236 | 2.0 | 13.0 | 0.00 | 0.00 | 0.00 | 1013.9 | |
| 20260508133903 | 56 | 250 | 5.0 | 13.0 | 0.00 | 0.00 | 0.00 | 1013.6 | |
| 20260508133402 | 56 | 217 | 3.0 | 11.0 | 0.00 | 0.00 | 0.00 | 1013.2 | |
| 20260508132903 | 56 | 249 | 4.0 | 11.0 | 0.00 | 0.00 | 0.00 | 1013.9 | |
| 20260508132403 | 56 | 240 | 4.0 | 11.0 | 0.00 | 0.00 | 0.00 | 1013.9 | |
| 20260508131903 | 55 | 240 | 5.0 | 11.0 | 0.00 | 0.00 | 0.00 | 1014.3 | |
| 20260508131424 | 55 | 205 | 4.0 | 14.0 | 0.00 | 0.00 | 0.00 | 1013.6 | |
| 20260508130903 | 55 | 268 | 6.0 | 14.0 | 0.00 | 0.00 | 0.00 | 1013.2 | |
| 20260508130402 | 55 | 242 | 2.0 | 7.0 | 0.00 | 0.00 | 0.00 | 1014.3 | |
| 20260508125903 | 54 | 207 | 3.0 | 6.0 | 0.00 | 0.00 | 0.00 | 1013.2 | |
| 20260508125402 | 54 | 200 | 3.0 | 6.0 | 0.00 | 0.00 | 0.00 | 1013.2 | |
| 20260508124903 | 53 | 203 | 2.0 | 6.0 | 0.00 | 0.00 | 0.00 | 1013.6 | |
| 20260508124403 | 53 | 197 | 2.0 | 6.0 | 0.00 | 0.00 | 0.00 | 1013.2 | |
| 20260508123903 | 53 | 203 | 2.0 | 5.0 | 0.00 | 0.00 | 0.00 | 1012.9 | |
| 20260508123402 | 52 | 197 | 3.0 | 5.0 | 0.00 | 0.00 | 0.00 | 1013.6 | |
| 20260508122903 | 52 | 202 | 2.0 | 5.0 | 0.00 | 0.00 | 0.00 | 1013.2 | |
| 20260508122402 | 51 | 206 | 2.0 | 5.0 | 0.00 | 0.00 | 0.00 | 1013.6 | |
| 20260508121903 | 51 | 200 | 3.0 | 5.0 | 0.00 | 0.00 | 0.00 | 1013.2 | |
| 20260508121403 | 50 | 202 | 2.0 | 5.0 | 0.00 | 0.00 | 0.00 | 1013.6 | |
| 20260508120924 | 50 | 194 | 2.0 | 5.0 | 0.00 | 0.00 | 0.00 | 1013.2 | |
| 20260508120403 | 50 | 210 | 2.0 | 5.0 | 0.00 | 0.00 | 0.00 | 1013.2 | |
| 20260508115903 | 50 | 203 | 2.0 | 5.0 | 0.00 | 0.00 | 0.00 | 1013.2 | |
| 20260508115403 | 50 | 208 | 2.0 | 5.0 | 0.00 | 0.00 | 0.00 | 1013.2 | |
| 20260508114903 | 49 | 205 | 2.0 | 5.0 | 0.00 | 0.00 | 0.00 | 1013.2 | |
| 20260508114403 | 49 | 204 | 2.0 | 5.0 | 0.00 | 0.00 | 0.00 | 1013.6 | |
| 20260508113903 | 49 | 218 | 1.0 | 4.0 | 0.00 | 0.00 | 0.00 | 1012.9 | |
| 20260508113403 | 49 | 197 | 2.0 | 5.0 | 0.00 | 0.00 | 0.00 | 1013.2 | |
| 20260508112924 | 49 | 205 | 3.0 | 5.0 | 0.00 | 0.00 | 0.00 | 1012.9 | |
| 20260508112403 | 49 | 214 | 2.0 | 5.0 | 0.00 | 0.00 | 0.00 | 1012.9 | |
| 20260508111903 | 49 | 204 | 2.0 | 5.0 | 0.00 | 0.00 | 0.00 | 1012.9 | |
| 20260508111403 | 49 | 196 | 1.0 | 3.0 | 0.00 | 0.00 | 0.00 | 1012.9 | |
| 20260508110903 | 49 | 202 | 1.0 | 3.0 | 0.00 | 0.00 | 0.00 | 1013.2 | |
| 20260508110403 | 48 | 213 | 2.0 | 3.0 | 0.00 | 0.00 | 0.00 | 1013.2 | |
| 20260508105902 | 48 | 205 | 2.0 | 3.0 | 0.00 | 0.00 | 0.00 | 1012.9 | |
| 20260508105403 | 48 | 207 | 1.0 | 3.0 | 0.00 | 0.00 | 0.00 | 1012.9 | |
| 20260508104924 | 48 | 211 | 0.0 | 6.0 | 0.00 | 0.00 | 0.00 | 1012.9 | |
| 20260508104424 | 48 | 211 | 2.0 | 6.0 | 0.00 | 0.00 | 0.00 | 1013.2 | |
| 20260508103903 | 48 | 201 | 1.0 | 4.0 | 0.00 | 0.00 | 0.00 | 1013.2 | |
| 20260508103403 | 47 | 210 | 2.0 | 4.0 | 0.00 | 0.00 | 0.00 | 1013.2 | |
| 20260508102904 | 47 | 196 | 2.0 | 4.0 | 0.00 | 0.00 | 0.00 | 1012.6 | |
| 20260508102403 | 47 | 198 | 2.0 | 4.0 | 0.00 | 0.00 | 0.00 | 1012.9 | |
| 20260508101903 | 47 | 200 | 2.0 | 3.0 | 0.00 | 0.00 | 0.00 | 1013.6 | |
| 20260508101403 | 47 | 195 | 2.0 | 3.0 | 0.00 | 0.00 | 0.00 | 1013.2 | |
| 20260508095903 | 47 | 201 | 2.0 | 3.0 | 0.00 | 0.00 | 0.00 | 1012.9 | |
| 20260508095403 | 47 | 202 | 2.0 | 3.0 | 0.00 | 0.00 | 0.00 | 1012.9 | |
| 20260508094903 | 47 | 202 | 1.0 | 3.0 | 0.00 | 0.00 | 0.00 | 1012.9 | |
| 20260508094403 | 47 | 200 | 1.0 | 3.0 | 0.00 | 0.00 | 0.00 | 1013.2 | |
| 20260508093903 | 47 | 203 | 2.0 | 3.0 | 0.00 | 0.00 | 0.00 | 1012.9 | |
| 20260508093403 | 46 | 201 | 2.0 | 2.0 | 0.00 | 0.00 | 0.00 | 1013.2 | |
| 20260508092903 | 46 | 207 | 1.0 | 4.0 | 0.00 | 0.00 | 0.00 | 1013.2 | |
| 20260508092403 | 47 | 204 | 1.0 | 5.0 | 0.00 | 0.00 | 0.00 | 1013.6 | |
| 20260508091903 | 47 | 216 | 0.0 | 5.0 | 0.00 | 0.00 | 0.00 | 1012.9 | |
| 20260508091402 | 47 | 225 | 0.0 | 3.0 | 0.00 | 0.00 | 0.00 | 1013.2 | |
| 20260508090903 | 47 | 205 | 2.0 | 3.0 | 0.00 | 0.00 | 0.00 | 1013.2 | |
| 20260508090403 | 47 | 203 | 2.0 | 3.0 | 0.00 | 0.00 | 0.00 | 1012.9 | |
| 20260508085903 | 47 | 205 | 2.0 | 3.0 | 0.00 | 0.00 | 0.00 | 1012.6 | |
| 20260508085424 | 47 | 203 | 2.0 | 4.0 | 0.00 | 0.00 | 0.00 | 1012.9 | |
| 20260508084903 | 47 | 203 | 2.0 | 4.0 | 0.00 | 0.00 | 0.00 | 1012.6 | |
| 20260508084403 | 47 | 204 | 2.0 | 3.0 | 0.00 | 0.00 | 0.00 | 1013.6 | |
| 20260508083903 | 47 | 200 | 2.0 | 3.0 | 0.00 | 0.00 | 0.00 | 1013.2 | |
| 20260508083424 | 47 | 204 | 2.0 | 3.0 | 0.00 | 0.00 | 0.00 | 1013.2 | |
| 20260508082903 | 47 | 204 | 1.0 | 3.0 | 0.00 | 0.00 | 0.00 | 1013.2 | |
| 20260508082403 | 47 | 212 | 0.0 | 5.0 | 0.00 | 0.00 | 0.00 | 1013.6 | |
| 20260508081903 | 47 | 212 | 1.0 | 5.0 | 0.00 | 0.00 | 0.00 | 1012.9 | |
| 20260508081403 | 47 | 208 | 1.0 | 3.0 | 0.00 | 0.00 | 0.00 | 1012.6 | |
| 20260508080903 | 47 | 216 | 1.0 | 4.0 | 0.00 | 0.00 | 0.00 | 1012.9 | |
| 20260508080403 | 47 | 212 | 1.0 | 4.0 | 0.00 | 0.00 | 0.00 | 1013.2 | |
| 20260508075903 | 47 | 203 | 1.0 | 3.0 | 0.00 | 0.00 | 0.00 | 1013.2 | |
| 20260508075403 | 47 | 202 | 0.0 | 3.0 | 0.00 | 0.00 | 0.00 | 1012.9 | |
| 20260508074903 | 47 | 205 | 1.0 | 3.0 | 0.00 | 0.00 | 0.00 | 1012.9 | |
| 20260508074403 | 48 | 200 | 2.0 | 3.0 | 0.00 | 0.00 | 0.00 | 1012.9 | |
| 20260508073945 | 48 | 200 | 2.0 | 4.0 | 0.00 | 0.00 | 0.00 | 1012.6 | |
| 20260508073402 | 48 | 201 | 2.0 | 4.0 | 0.00 | 0.00 | 0.00 | 1012.9 | |
| 20260508072903 | 48 | 202 | 2.0 | 3.0 | 0.00 | 0.00 | 0.00 | 1012.9 | |
| 20260508072402 | 48 | 201 | 2.0 | 3.0 | 0.00 | 0.00 | 0.00 | 1013.2 | |
| 20260508071903 | 48 | 198 | 2.0 | 3.0 | 0.00 | 0.00 | 0.00 | 1013.6 | |
| 20260508071403 | 48 | 230 | 0.0 | 3.0 | 0.00 | 0.00 | 0.00 | 1013.6 | |
| 20260508070903 | 49 | 213 | 2.0 | 4.0 | 0.00 | 0.00 | 0.00 | 1013.2 | |
| 20260508070403 | 48 | 230 | 2.0 | 4.0 | 0.00 | 0.00 | 0.00 | 1013.2 | |
| 20260508065903 | 48 | 199 | 2.0 | 3.0 | 0.00 | 0.00 | 0.00 | 1013.2 | |
| 20260508065403 | 48 | 208 | 2.0 | 4.0 | 0.00 | 0.00 | 0.00 | 1013.9 | |
| 20260508064903 | 48 | 201 | 2.0 | 4.0 | 0.00 | 0.00 | 0.00 | 1013.2 | |
| 20260508064403 | 48 | 202 | 2.0 | 4.0 | 0.00 | 0.00 | 0.00 | 1013.9 | |
| 20260508063902 | 48 | 207 | 2.0 | 4.0 | 0.00 | 0.00 | 0.00 | 1013.9 | |
| 20260508063403 | 48 | 201 | 0.0 | 3.0 | 0.00 | 0.00 | 0.00 | 1013.6 | |
| 20260508062903 | 48 | 213 | 2.0 | 5.0 | 0.00 | 0.00 | 0.00 | 1013.6 | |
| 20260508062403 | 49 | 223 | 2.0 | 5.0 | 0.00 | 0.00 | 0.00 | 1013.9 | |
| 20260508061924 | 49 | 210 | 1.0 | 3.0 | 0.00 | 0.00 | 0.00 | 1013.9 | |
| 20260508061425 | 49 | 201 | 1.0 | 3.0 | 0.00 | 0.00 | 0.00 | 1013.6 | |
| 20260508060903 | 49 | 203 | 2.0 | 3.0 | 0.00 | 0.00 | 0.00 | 1013.6 | |
| 20260508060424 | 49 | 202 | 2.0 | 4.0 | 0.00 | 0.00 | 0.00 | 1013.2 | |
| 20260508055902 | 49 | 198 | 2.0 | 4.0 | 0.00 | 0.00 | 0.00 | 1013.6 | |
| 20260508055425 | 49 | 192 | 2.0 | 4.0 | 0.00 | 0.00 | 0.00 | 1013.2 | |
| 20260508054903 | 49 | 198 | 2.0 | 4.0 | 0.00 | 0.00 | 0.00 | 1013.6 | |
| 20260508054403 | 49 | 204 | 2.0 | 3.0 | 0.00 | 0.00 | 0.00 | 1013.6 | |
| 20260508053903 | 49 | 199 | 2.0 | 4.0 | 0.00 | 0.00 | 0.00 | 1013.6 | |
| 20260508053403 | 49 | 205 | 3.0 | 4.0 | 0.00 | 0.00 | 0.00 | 1013.2 | |
| 20260508052903 | 49 | 204 | 3.0 | 5.0 | 0.00 | 0.00 | 0.00 | 1013.6 | |
| 20260508052403 | 49 | 199 | 3.0 | 5.0 | 0.00 | 0.00 | 0.00 | 1013.9 | |
| 20260508051903 | 49 | 201 | 3.0 | 5.0 | 0.00 | 0.00 | 0.00 | 1013.9 | |
| 20260508051424 | 50 | 198 | 2.0 | 5.0 | 0.00 | 0.00 | 0.00 | 1013.2 | |
| 20260508050924 | 50 | 200 | 2.0 | 5.0 | 0.00 | 0.00 | 0.00 | 1013.6 | |
| 20260508050403 | 50 | 200 | 2.0 | 4.0 | 0.00 | 0.00 | 0.00 | 1013.6 | |
| 20260508045903 | 50 | 200 | 2.0 | 4.0 | 0.00 | 0.00 | 0.00 | 1013.6 | |
| 20260508045425 | 50 | 206 | 2.0 | 4.0 | 0.00 | 0.00 | 0.00 | 1013.6 | |
| 20260508044903 | 50 | 198 | 2.0 | 4.0 | 0.00 | 0.00 | 0.00 | 1013.6 | |
| 20260508044403 | 50 | 205 | 3.0 | 4.0 | 0.00 | 0.00 | 0.00 | 1013.6 | |
| 20260508043903 | 50 | 200 | 2.0 | 4.0 | 0.00 | 0.00 | 0.00 | 1013.6 | |
| 20260508043403 | 50 | 200 | 2.0 | 4.0 | 0.00 | 0.00 | 0.00 | 1014.3 | |
| 20260508042902 | 50 | 199 | 2.0 | 3.0 | 0.00 | 0.00 | 0.00 | 1013.6 | |
| 20260508042403 | 50 | 200 | 2.0 | 4.0 | 0.00 | 0.00 | 0.00 | 1013.6 | |
| 20260508041924 | 50 | 196 | 2.0 | 4.0 | 0.00 | 0.00 | 0.00 | 1013.9 | |
| 20260508041403 | 50 | 198 | 2.0 | 3.0 | 0.00 | 0.00 | 0.00 | 1013.6 | |
| 20260508040903 | 51 | 206 | 2.0 | 3.0 | 0.00 | 0.00 | 0.00 | 1013.9 | |
| 20260508040403 | 51 | 194 | 2.0 | 4.0 | 0.00 | 0.00 | 0.00 | 1013.6 | |
| 20260508035903 | 51 | 195 | 2.0 | 4.0 | 0.00 | 0.00 | 0.00 | 1013.2 | |
| 20260508035403 | 51 | 202 | 2.0 | 3.0 | 0.00 | 0.00 | 0.00 | 1013.6 | |
| 20260508034924 | 51 | 196 | 1.0 | 3.0 | 0.00 | 0.00 | 0.00 | 1013.2 |